Flag for Romania Weather past 2 weeks in Târgu Mureş, Romania

Now
66 °F

Scattered showers. Scattered clouds.


Feels Like: 66 °F
Forecast: 52 / 81 °F
Wind: 9 mph from North

Location: Tirgu Mures Airport

Current Time: May 23, 2015 at 8:13:02 PM

Latest Report: May 23, 2015 at 8:00 PM


Visibility: N/A

Pressure: 29.89 "Hg

Humidity: 73%

Dew point: 57 °F

Location of Târgu MureşLocation

Historic Weather in Târgu Mureş — Graph

°F

Târgu Mureş temperature yesterday

Maximum temperature yesterday: 82 °F (at 5:30 PM)
Minimum temperature yesterday: 54 °F (at 6:00 AM)
Average temperature yesterday: 69 °F

Past Weeks' High & Low Weather Summary

 TemperatureHumidityPressure
High82 °F (May 19, 4:00 PM)100% (May 11, 3:00 AM)30.36 "Hg (May 11, 3:00 AM)
Low43 °F (May 9, 5:30 AM)30% (May 21, 2:30 PM)29.68 "Hg (May 14, 6:00 PM)
Average61 °F71%30.03 "Hg
* Reported May 8 7:00 PM — May 23 7:00 PM, Târgu Mureş, Weather by CustomWeather, © 2015

Note: Actual official high and low records may vary slightly from our data, if they occured in-between our weather recording intervals... More about our weather records

Advertising

Târgu Mureş weather history for previous 24 hours

 ConditionsComfort  
Time TempWeatherWind HumidityBarometerVisibility
7:00 PM
Sat, May 23
70 °FScattered clouds.6 mph60%29.89 "HgN/A
6:30 PM72 °FPassing clouds.8 mph53%29.89 "HgN/A
6:00 PM72 °FPassing clouds.8 mph53%29.89 "HgN/A
5:30 PM73 °FPassing clouds.8 mph50%29.89 "HgN/A
5:00 PM75 °FPassing clouds.1 mph39%29.89 "HgN/A
4:30 PM77 °FScattered clouds.2 mph42%29.89 "HgN/A
4:00 PM75 °FPassing clouds.3 mph39%29.89 "HgN/A
3:30 PM73 °FScattered showers. Scattered clouds.5 mph44%29.89 "HgN/A
3:00 PM72 °FScattered showers. Scattered clouds.6 mph53%29.89 "HgN/A
2:30 PM72 °FScattered clouds.7 mph53%29.89 "HgN/A
2:00 PM73 °FPassing clouds.9 mph47%29.89 "HgN/A
1:30 PM75 °FPassing clouds.6 mph41%29.89 "HgN/A
1:00 PM75 °FPassing clouds.8 mph39%29.89 "HgN/A
12:30 PM75 °FPassing clouds.7 mph41%29.89 "HgN/A
12:00 PM73 °FPassing clouds.9 mph38%29.89 "HgN/A
11:30 AM73 °FPassing clouds.8 mph44%29.89 "HgN/A
11:00 AM72 °FSunny.13 mph41%29.89 "Hg10 mi
10:30 AM72 °FSunny.10 mph44%29.89 "Hg10 mi
10:00 AM72 °FPassing clouds.9 mph50%29.89 "HgN/A
9:30 AM68 °FPassing clouds.6 mph56%29.92 "Hg6 mi
9:00 AM66 °FPassing clouds.6 mph64%29.92 "Hg4 mi
8:30 AM63 °FPassing clouds.8 mph73%29.92 "Hg4 mi
8:00 AM59 °FPassing clouds.7 mph77%29.92 "HgN/A
7:30 AM57 °FPassing clouds.2 mph77%29.92 "HgN/A
7:00 AM57 °FPassing clouds.No wind77%29.92 "HgN/A
6:30 AM52 °FPassing clouds.7 mph94%29.95 "HgN/A
6:00 AM52 °FPassing clouds.8 mph88%29.95 "HgN/A
5:30 AM54 °FClear.7 mph82%29.95 "Hg10 mi
5:00 AM54 °FClear.8 mph88%29.95 "Hg10 mi
4:00 AM55 °FClear.7 mph82%29.95 "Hg10 mi
3:00 AM55 °FClear.2 mph88%29.95 "Hg10 mi
2:00 AM57 °FPassing clouds.No wind88%29.98 "HgN/A
1:00 AM59 °FThundershowers. Passing clouds.3 mph88%29.98 "HgN/A
12:00 AM61 °FThundershowers. Passing clouds.8 mph83%29.98 "HgN/A
11:00 PM
Fri, May 22
66 °FThunderstorms. Passing clouds.2 mph78%29.98 "HgN/A
10:00 PM72 °FThunderstorms. Passing clouds.1 mph57%29.95 "HgN/A
9:00 PM72 °FPassing clouds.No wind57%29.95 "HgN/A
8:30 PM73 °FPassing clouds.3 mph61%29.95 "HgN/A
8:00 PM75 °FPassing clouds.7 mph57%29.95 "HgN/A
Weather by CustomWeather, © 2015

See weather overviewHow to use our weather pages